Kimball, NE

6:11 AM MDT on April 26, 2017 (GMT -0600)
Kimball Municipal-Arraj

Weather History for KIBM - March, 2013

Change the Weather History Date:

Monday, March 25, 2013

  Actual Average (KSNY) Record (KSNY)
Temperature  
Mean Temperature 20 °F -  
Max Temperature 35 °F 49 °F 78 °F (1985)
Min Temperature 6 °F 22 °F -11 °F (1965)
Degree Days  
Heating Degree Days 44    
Moisture  
Dew Point 9 °F    
Average Humidity 64    
Maximum Humidity 89    
Minimum Humidity 25    
Precipitation  
Precipitation 0.00 in - - ()
Sea Level Pressure  
Sea Level Pressure 30.17 in    
Wind  
Wind Speed 10 mph (NW)    
Max Wind Speed 17 mph    
Max Gust Speed 22 mph    
Visibility 10 miles    
Events Snow    
Averages and records for this station are not official NWS values.
T = Trace of Precipitation, MM = Missing Value Source: NWS Daily Summary

Daily Weather History Graph

Daily Weather History Graph

Search for Another Location

Airport or City:

Trip Planner

Search our weather history database for the weather conditions in past years. The results will help you decide how hot, cold, wet, or windy it might be!

Date:

Astronomy

Mar. 25, 2013 Rise Set
Actual Time 7:49 AM CDT 8:12 PM CDT
Civil Twilight 7:21 AM CDT 8:40 PM CDT
Nautical Twilight 6:49 AM CDT 9:12 PM CDT
Astronomical Twilight 6:15 AM CDT 9:46 PM CDT
Moon 6:46 PM CDT (3/25) 6:34 AM CDT (3/25)
Length of Visible Light 13h 18m
Length of Day
12h 23m
Waxing Gibbous, 96% of the Moon is Illuminated
Mar 25
Waxing Gibbous
Mar 27
Full
Apr 2
Last Quarter
Apr 10
New
Apr 18
First Quarter

Hourly Weather History & Observations

Time (CDT) Temp. Windchill Dew Point Humidity Pressure Visibility Wind Dir Wind Speed Gust Speed Precip Events Conditions
12:15 AM 17.6 °F 3.2 °F 7.7 °F 65% 30.16 in 10.0 mi NNW 15.0 mph - N/A   Overcast
12:35 AM 16.9 °F 3.4 °F 8.4 °F 69% 30.16 in 10.0 mi NNW 12.7 mph - N/A   Overcast
12:55 AM 15.8 °F 1.4 °F 9.3 °F 76% 30.16 in 10.0 mi North 13.8 mph - N/A   Overcast
1:15 AM 15.6 °F 1.8 °F 10.2 °F 79% 30.16 in 10.0 mi NNW 12.7 mph - N/A   Overcast
1:35 AM 14.7 °F 2.1 °F 10.4 °F 83% 30.17 in 5.0 mi NNW 10.4 mph - N/A   Haze
1:55 AM 14.2 °F 0.0 °F 10.0 °F 84% 30.17 in 5.0 mi NNW 12.7 mph - N/A   Mostly Cloudy
2:15 AM 13.3 °F 0.3 °F 9.5 °F 85% 30.17 in 10.0 mi NNW 10.4 mph - N/A   Clear
2:35 AM 12.9 °F 0.7 °F 9.3 °F 86% 30.17 in 10.0 mi NNW 9.2 mph - N/A   Clear
2:55 AM 12.6 °F 0.2 °F 8.6 °F 84% 30.17 in 10.0 mi NNW 9.2 mph - N/A   Scattered Clouds
3:15 AM 12.6 °F 0.2 °F 8.6 °F 84% 30.18 in 10.0 mi NNW 9.2 mph - N/A   Scattered Clouds
3:35 AM 11.3 °F 1.9 °F 8.1 °F 87% 30.17 in 10.0 mi NNW 5.8 mph - N/A   Clear
3:55 AM 9.1 °F 0.8 °F 5.9 °F 87% 30.17 in 7.0 mi WNW 4.6 mph - N/A Snow Light Snow
4:15 AM 9.5 °F -1.5 °F 6.8 °F 89% 30.17 in 10.0 mi WNW 6.9 mph - N/A   Clear
4:35 AM 9.3 °F -0.5 °F 6.3 °F 87% 30.17 in 7.0 mi NW 5.8 mph - N/A   Scattered Clouds
4:55 AM 8.6 °F -1.3 °F 5.5 °F 87% 30.17 in 10.0 mi WNW 5.8 mph - N/A Snow Light Snow
5:15 AM 8.2 °F -1.8 °F 5.0 °F 87% 30.17 in 10.0 mi WNW 5.8 mph - N/A   Clear
5:35 AM 8.8 °F -1.1 °F 5.9 °F 88% 30.17 in 10.0 mi NW 5.8 mph - N/A   Clear
6:15 AM 8.6 °F -2.6 °F 5.2 °F 86% 30.17 in 10.0 mi WNW 6.9 mph - N/A   Clear
6:35 AM 8.2 °F -3.0 °F 5.0 °F 87% 30.17 in 10.0 mi NW 6.9 mph - N/A   Clear
6:55 AM 7.9 °F -5.5 °F 4.6 °F 87% 30.17 in 10.0 mi NW 9.2 mph - N/A   Clear
7:15 AM 7.3 °F -4.1 °F 3.9 °F 86% 30.17 in 10.0 mi NW 6.9 mph - N/A   Clear
7:35 AM 6.4 °F -5.2 °F 3.0 °F 86% 30.18 in 10.0 mi WNW 6.9 mph - N/A   Clear
7:55 AM 6.6 °F -8.8 °F 3.2 °F 86% 30.18 in 10.0 mi WNW 11.5 mph - N/A   Clear
8:15 AM 7.7 °F -6.6 °F 4.3 °F 86% 30.18 in 10.0 mi WNW 10.4 mph - N/A   Clear
8:35 AM 9.7 °F -3.3 °F 6.4 °F 87% 30.18 in 10.0 mi WNW 9.2 mph - N/A   Clear
8:55 AM 11.5 °F -1.9 °F 8.1 °F 86% 30.18 in 10.0 mi WNW 10.4 mph - N/A   Clear
9:15 AM 12.9 °F 0.7 °F 9.3 °F 86% 30.19 in 10.0 mi NW 9.2 mph - N/A   Clear
9:35 AM 14.4 °F 2.4 °F 10.8 °F 86% 30.20 in 10.0 mi NW 9.2 mph - N/A   Clear
9:55 AM 16.7 °F 6.2 °F 12.4 °F 83% 30.20 in 10.0 mi NW 8.1 mph - N/A   Clear
10:15 AM 19.0 °F 4.5 °F 12.0 °F 74% 30.20 in 10.0 mi NNW 16.1 mph 20.7 mph N/A   Clear
10:35 AM 19.9 °F 6.7 °F 11.7 °F 70% 30.20 in 10.0 mi NNW 13.8 mph - N/A   Clear
10:55 AM 21.2 °F 8.9 °F 12.2 °F 68% 30.21 in 10.0 mi NW 12.7 mph - N/A   Clear
11:15 AM 22.1 °F 10.0 °F 12.4 °F 66% 30.21 in 10.0 mi NW 12.7 mph - N/A   Clear
11:35 AM 23.2 °F 12.6 °F 12.4 °F 63% 30.21 in 10.0 mi NNW 10.4 mph 17.3 mph N/A   Clear
11:55 AM 23.5 °F 11.8 °F 12.4 °F 62% 30.21 in 10.0 mi NW 12.7 mph - N/A   Clear
12:15 PM 24.6 °F 15.1 °F 12.9 °F 61% 30.21 in 10.0 mi NNW 9.2 mph 16.1 mph N/A   Clear
12:35 PM 25.7 °F 14.0 °F 12.4 °F 57% 30.21 in 10.0 mi NW 13.8 mph - N/A   Clear
12:55 PM 26.4 °F 15.0 °F 11.3 °F 53% 30.21 in 10.0 mi NNW 13.8 mph 19.6 mph N/A   Clear
1:15 PM 27.5 °F 15.0 °F 10.8 °F 49% 30.20 in 10.0 mi NNW 17.3 mph - N/A   Clear
1:35 PM 28.2 °F 16.3 °F 11.1 °F 49% 30.20 in 10.0 mi NNW 16.1 mph 21.9 mph N/A   Clear
1:55 PM 29.1 °F 19.4 °F 13.3 °F 52% 30.19 in 10.0 mi NW 11.5 mph 17.3 mph N/A   Clear
2:15 PM 29.7 °F 20.1 °F 12.4 °F 49% 30.19 in 10.0 mi NW 11.5 mph 19.6 mph N/A   Clear
2:35 PM 30.6 °F 20.7 °F 14.5 °F 51% 30.19 in 10.0 mi NW 12.7 mph 18.4 mph N/A   Clear
2:55 PM 31.6 °F 23.1 °F 13.6 °F 47% 30.17 in 10.0 mi NNW 10.4 mph 17.3 mph N/A   Clear
3:15 PM 32.4 °F 24.6 °F 11.3 °F 42% 30.17 in 10.0 mi NNW 9.2 mph - N/A   Clear
3:35 PM 32.9 °F 25.9 °F 9.1 °F 37% 30.17 in 10.0 mi NW 8.1 mph - N/A   Clear
3:55 PM 34.0 °F 25.0 °F 9.1 °F 36% 30.16 in 10.0 mi NNW 12.7 mph 18.4 mph N/A   Clear
4:15 PM 34.3 °F 25.5 °F 7.0 °F 32% 30.15 in 10.0 mi NNW 12.7 mph 16.1 mph N/A   Clear
4:35 PM 35.4 °F 30.5 °F 5.7 °F 29% 30.15 in 10.0 mi North 5.8 mph 18.4 mph N/A   Clear
4:55 PM 34.9 °F 29.9 °F 5.7 °F 30% 30.16 in 10.0 mi NW 5.8 mph - N/A   Clear
5:15 PM 35.1 °F 31.0 °F 5.9 °F 30% 30.15 in 10.0 mi West 4.6 mph - N/A   Clear
5:35 PM 35.6 °F 28.6 °F 3.4 °F 26% 30.15 in 10.0 mi NNW 9.2 mph - N/A   Clear
5:55 PM 35.8 °F 30.9 °F 3.7 °F 26% 30.14 in 10.0 mi NNW 5.8 mph - N/A   Clear
6:15 PM 35.4 °F 32.6 °F 3.7 °F 26% 30.14 in 10.0 mi North 3.5 mph - N/A   Clear
6:35 PM 35.6 °F 29.2 °F 3.0 °F 25% 30.14 in 10.0 mi NNW 8.1 mph - N/A   Clear
6:55 PM 35.4 °F 31.5 °F 3.0 °F 26% 30.14 in 10.0 mi NNW 4.6 mph - N/A   Clear
7:15 PM 34.9 °F 30.8 °F 3.4 °F 27% 30.15 in 10.0 mi NNE 4.6 mph - N/A   Clear
7:35 PM 33.6 °F - 5.0 °F 30% 30.15 in 10.0 mi Calm Calm - N/A   Clear
7:55 PM 32.0 °F - 6.4 °F 34% 30.15 in 10.0 mi Calm Calm - N/A   Clear
8:15 PM 31.6 °F - 6.8 °F 35% 30.15 in 10.0 mi Calm Calm - N/A   Clear
8:35 PM 30.0 °F - 7.0 °F 38% 30.15 in 10.0 mi Calm Calm - N/A   Clear
8:55 PM 30.4 °F 26.9 °F 4.8 °F 34% 30.15 in 10.0 mi South 3.5 mph - N/A   Clear
9:15 PM 25.7 °F 17.1 °F 18.0 °F 73% 30.16 in 10.0 mi WSW 8.1 mph - N/A   Clear
9:35 PM 24.4 °F 14.9 °F 18.5 °F 78% 30.17 in 10.0 mi WSW 9.2 mph - N/A   Clear
9:55 PM 23.9 °F 14.2 °F 18.3 °F 79% 30.17 in 10.0 mi WSW 9.2 mph - N/A   Clear
10:15 PM 23.4 °F 12.8 °F 17.6 °F 79% 30.17 in 10.0 mi WSW 10.4 mph - N/A   Clear
10:35 PM 22.8 °F 12.9 °F 16.7 °F 77% 30.17 in 10.0 mi WSW 9.2 mph - N/A   Clear
10:55 PM 22.1 °F 12.0 °F 16.2 °F 78% 30.17 in 10.0 mi WSW 9.2 mph - N/A   Clear
11:15 PM 21.9 °F 11.0 °F 14.9 °F 74% 30.17 in 10.0 mi WSW 10.4 mph - N/A   Clear
11:35 PM 21.4 °F 11.1 °F 14.4 °F 74% 30.17 in 10.0 mi WSW 9.2 mph - N/A   Clear
11:55 PM 20.7 °F 10.2 °F 13.6 °F 74% 30.17 in 10.0 mi WSW 9.2 mph - N/A   Clear